Weather History for McKinney, TX

Change the Weather History Date:

Wednesday, March 12, 2014

  Actual Average (KADS) Record (KADS)
Temperature  
Mean Temperature 52 °F -  
Max Temperature 61 °F 62 °F 87 °F (2005)
Min Temperature 42 °F 46 °F 24 °F (1998)
Degree Days  
Heating Degree Days 12    
Growing Degree Days 2 (Base 50)    
Moisture  
Dew Point 26 °F    
Average Humidity 39    
Maximum Humidity 61    
Minimum Humidity 19    
Precipitation  
Precipitation 0.00 in - - ()
Sea Level Pressure  
Sea Level Pressure 30.18 in    
Wind  
Wind Speed 17 mph (NNW)    
Max Wind Speed 23 mph    
Max Gust Speed 33 mph    
Visibility 10 miles    
Events      
Averages and records for this station are not official NWS values.
T = Trace of Precipitation, MM = Missing Value Source: NWS Daily Summary

Daily Weather History Graph

Daily Weather History Graph

Search for Another Location

Airport:

Trip Planner

Search our weather history database for the weather conditions in past years. The results will help you decide how hot, cold, wet, or windy it might be!

Date:

Astronomy

Mar. 12, 2014 Rise Set
Actual Time 7:40 AM CDT 7:32 PM CDT
Civil Twilight 7:15 AM CDT 7:56 PM CDT
Nautical Twilight 6:47 AM CDT 8:25 PM CDT
Astronomical Twilight 6:18 AM CDT 8:54 PM CDT
Moon 4:12 PM CDT (3/12) 5:03 AM CDT (3/12)
Length of Visible Light 12h 40m
Length of Day
11h 51m
Waxing Gibbous, 85% of the Moon is Illuminated
Mar 12
Waxing Gibbous
Mar 16
Full
Mar 23
Last Quarter
Mar 30
New
Apr 7
First Quarter

Hourly Weather History & Observations

Time (CDT) Temp. Windchill Dew Point Humidity Pressure Visibility Wind Dir Wind Speed Gust Speed Precip Events Conditions
12:53 AM 55.9 °F - 36.0 °F 47% 29.86 in 10.0 mi NNW 19.6 mph 25.3 mph N/A   Clear
1:53 AM 53.1 °F - 36.0 °F 52% 29.91 in 10.0 mi North 16.1 mph 26.5 mph N/A   Clear
2:53 AM 51.1 °F - 35.1 °F 54% 29.95 in 10.0 mi NNW 20.7 mph 28.8 mph N/A   Clear
3:53 AM 50.0 °F - 35.1 °F 57% 29.98 in 10.0 mi North 18.4 mph 28.8 mph N/A   Clear
4:53 AM 48.9 °F - 35.1 °F 59% 30.00 in 10.0 mi North 23.0 mph 33.4 mph N/A   Overcast
5:53 AM 48.9 °F - 35.1 °F 59% 30.05 in 10.0 mi North 20.7 mph 31.1 mph N/A   Overcast
6:53 AM 46.0 °F 38.8 °F 33.1 °F 61% 30.10 in 10.0 mi North 18.4 mph 24.2 mph N/A   Mostly Cloudy
7:53 AM 44.1 °F 36.5 °F 30.0 °F 58% 30.14 in 10.0 mi North 17.3 mph 28.8 mph N/A   Clear
8:53 AM 46.0 °F 39.6 °F 30.0 °F 54% 30.21 in 10.0 mi North 15.0 mph - N/A   Clear
9:53 AM 48.0 °F - 28.0 °F 46% 30.25 in 10.0 mi North 19.6 mph 27.6 mph N/A   Clear
10:53 AM 51.1 °F - 25.0 °F 36% 30.27 in 10.0 mi North 20.7 mph 29.9 mph N/A   Clear
11:53 AM 55.0 °F - 24.1 °F 30% 30.29 in 10.0 mi North 19.6 mph 27.6 mph N/A   Clear
12:53 PM 57.0 °F - 24.1 °F 28% 30.29 in 10.0 mi North 19.6 mph 28.8 mph N/A   Clear
1:53 PM 59.0 °F - 23.0 °F 25% 30.28 in 10.0 mi North 20.7 mph 26.5 mph N/A   Clear
2:53 PM 60.1 °F - 21.0 °F 22% 30.26 in 10.0 mi North 20.7 mph 28.8 mph N/A   Clear
3:53 PM 60.1 °F - 17.1 °F 19% 30.25 in 10.0 mi NNW 16.1 mph 23.0 mph N/A   Clear
4:53 PM 61.0 °F - 19.0 °F 20% 30.24 in 10.0 mi NNW 11.5 mph - N/A   Clear
5:53 PM 60.1 °F - 19.0 °F 20% 30.23 in 10.0 mi North 15.0 mph - N/A   Clear
6:53 PM 57.9 °F - 19.0 °F 22% 30.24 in 10.0 mi North 11.5 mph 18.4 mph N/A   Clear
7:53 PM 54.0 °F - 19.0 °F 25% 30.26 in 10.0 mi NNW 5.8 mph - N/A   Clear
8:53 PM 52.0 °F - 19.9 °F 28% 30.27 in 10.0 mi NNW 6.9 mph - N/A   Clear
9:53 PM 48.9 °F - 21.0 °F 33% 30.29 in 10.0 mi North 5.8 mph - N/A   Clear
10:53 PM 46.0 °F 43.9 °F 19.9 °F 35% 30.30 in 10.0 mi NNW 4.6 mph - N/A   Clear
11:53 PM 42.1 °F 40.2 °F 19.0 °F 40% 30.31 in 10.0 mi NW 3.5 mph - N/A   Clear